Track COSMOS 718 now! 10-day predictions COSMOS 718 is classified as:
1 07685U 75016H 24325.79224340 .00000007 00000-0 15087-3 0 9993 2 07685 74.0029 264.4873 0038606 170.0228 204.2834 12.51381813271665